Main page
METAR-TAF:

METAR-TAF

Airports :

Ziguinchor Airport

Ziguinchor, Senegal

latitude: 12-33N, longitude: 016-16W, elevation: 26 m

Current weather observation

The report was made 1 hour and 4 minutes ago, at 18:00 UTC
Wind 6 kt from the Northwest
Temperature 31°C
Humidity 18%
Pressure 1011 hPa
Visibility 10 km or more
no clouds below 1500 m and no cumulonimbus

METAR: GOGG 181800Z 32006KT CAVOK 31/04 Q1011

Time: 19:04 (19:04 UTC)


TAF: missing

Weather observations and forecasts of more than 4000 airports (METAR and TAF reports).

The available stations are represented by yellow and red dots on the map.

Hover mouse over dot to see the name of the station.

Then click to see weather observations and forecasts.

To change the map : click on the green buttons with a black cross to zoom in, on the green button with a dash to zoom out, or on the green arrows for adjacent maps.


METAR-TAF: